[[{"header":{"parameterUnit":"m.s-1","parameterCategory":1,"la1":30.2991,"la2":30.254,"lo1":-89.0895,"lo2":-89.0444,"dy":0.0017,"dx":0.0017,"nx":28,"ny":28,"refTime":"2025-01-18T03:00:00:Z","depth":0,"parameterNumber":2,"parameterNumberName":"U-component_of_WINDS"},"data":[0,0,0,0,0,0,0,0,0,0,0,0,0,0,0,0,0,0,0,0,0,0,0,0,0,0,0,0,0,0,0,0,0,0,0,0,0,0,0,0,0,0,0,0,0,0,0,0,0,0,0,0,0,0,0,0,0,0,2.64,2.6401,0,2.6446,2.6446,2.6447,2.6384,2.6382,2.638,2.6377,2.643,2.6433,2.6437,0,0,0,0,0,0,0,0,0,0,0,0,0,2.6267,2.627,2.64,2.6401,2.6401,2.6446,2.6446,2.6447,2.6385,2.6382,2.6379,2.6376,2.6429,2.6433,2.6437,0,0,0,0,0,0,0,0,0,0,0,0,0,2.632,2.6271,2.64,2.6375,2.6374,2.6445,2.6446,2.6447,2.6385,2.6382,2.6378,2.6375,2.6427,2.6432,2.6438,2.6538,0,0,2.6454,2.6456,0,0,0,0,0,0,0,0,2.6317,2.6325,2.6378,2.6377,2.6375,2.6406,2.6418,2.6478,2.6386,2.6381,2.6377,2.6374,2.6425,2.643,2.6446,2.654,2.6542,2.6454,2.6457,2.646,2.6461,0,0,0,0,0,0,0,2.6313,2.6323,2.6418,2.6379,2.6377,2.6365,2.6368,2.6429,2.6422,2.6381,2.6377,2.6383,2.6423,2.6441,2.6447,2.6543,2.6454,2.6459,2.6462,2.6464,2.6725,2.6729,0,0,0,0,0,0,2.6312,2.632,2.6417,2.642,2.6337,2.637,2.6374,2.6399,2.6421,2.642,2.6385,2.6379,2.6434,2.6441,2.6449,2.657,2.6459,2.6464,2.6467,2.6722,2.6726,2.673,0,0,0,0,0,0,2.6309,2.6321,2.6415,2.6369,2.638,2.6376,2.6405,2.6402,2.642,2.6424,2.6423,2.6405,2.6432,2.6441,2.6516,2.657,2.6467,2.6472,2.6717,2.6723,2.6728,2.6811,0,0,0,0,0,0,2.6306,2.632,2.6356,2.637,2.6382,2.648,2.6408,2.6405,2.6428,2.6421,2.6442,2.6442,2.643,2.6509,2.6522,2.6576,2.6476,2.6712,2.672,2.6727,2.6803,2.6818,2.6832,0,0,0,0,0,2.6301,2.6378,2.6358,2.637,2.6427,2.6483,2.649,2.6473,2.6433,2.647,2.6474,2.6441,2.6562,2.6517,2.6531,2.6587,2.6709,2.6718,2.6726,2.6797,2.6815,2.6831,0,0,0,0,0,0,2.6372,2.6379,2.6357,2.644,2.6462,2.6472,2.6519,2.6493,2.6527,2.6519,2.6498,2.6504,2.6585,2.6593,2.6543,2.6687,2.6629,2.6641,2.6678,2.6696,2.671,2.6707,2.648,0,0,0,0,0,2.6397,2.644,2.6445,2.6518,2.6529,2.6523,2.6546,2.6532,2.6553,2.6562,2.6571,2.6595,2.6639,2.6668,2.6708,2.6804,2.681,2.685,2.6865,2.6876,2.6887,2.6942,2.6961,2.6759,2.6758,2.6758,0,0,2.6449,2.6459,2.6487,2.6532,2.6547,2.6595,2.653,2.6583,2.6619,2.6571,2.6642,2.665,2.6676,2.6763,2.6801,2.6773,2.6944,2.6887,2.6896,2.6901,2.6953,2.6972,2.6989,2.6764,2.6763,2.6762,0,0,2.657,2.658,2.6643,2.666,2.6682,2.6678,2.6693,2.6708,2.6711,2.6782,2.6748,2.6793,2.6867,2.6888,2.6908,2.7041,2.7014,2.7055,2.713,2.7183,2.7199,2.7214,2.7263,2.7281,2.7065,2.7066,2.7066,0,2.6633,2.6701,2.668,2.6735,2.6758,2.6716,2.6782,2.6799,2.6835,2.6852,2.6819,2.6914,2.6929,2.7022,2.7054,2.7071,2.7091,2.7052,2.7198,2.7212,2.7225,2.7273,2.7291,2.7071,2.707,2.7069,2.7069,0,2.6779,2.6827,2.6876,2.691,2.6938,2.6999,2.699,2.7021,2.7005,2.7005,2.7081,2.7097,2.7141,2.7162,2.7147,2.7254,2.7236,2.7201,2.7143,2.725,2.7294,2.7312,2.7078,2.7076,2.7074,2.7073,0,0,2.6943,2.6967,2.6985,2.7002,2.7025,2.7064,2.7124,2.7166,2.7195,2.7222,2.7274,2.734,2.7309,2.7333,2.732,2.7367,2.7475,2.7327,2.7327,2.7356,2.7598,2.7625,2.7646,2.7457,2.746,2.7463,2.7596,0,2.7065,2.7167,2.7152,2.7252,2.7298,2.7261,2.7314,2.7336,2.7339,2.7381,2.7384,2.7432,2.7386,2.7401,2.7446,2.7452,2.7523,2.7442,2.7508,2.751,2.7503,2.7668,2.7696,2.7821,2.7613,2.7616,2.7618,0,2.722,2.7252,2.7356,2.7376,2.7395,2.7442,2.7482,2.7521,2.7547,2.7546,2.7574,2.7554,2.7618,2.7558,2.7648,2.7593,2.762,2.7628,2.7632,2.7638,2.7571,2.7681,2.7861,2.788,2.7645,2.7643,2.7641,0,2.7332,2.7402,2.7474,2.7489,2.7513,2.7548,2.756,2.7582,2.761,2.7645,2.7663,2.7706,2.773,2.7765,2.7759,2.7715,2.7852,2.7791,2.7856,2.7856,2.7886,2.7885,2.8074,2.7901,2.7901,2.7901,2.79,0,2.747,2.7536,2.7525,2.7569,2.7644,2.7627,2.7702,2.771,2.7731,2.7779,2.7749,2.7796,2.7783,2.783,2.7825,2.7903,2.7913,2.7916,2.7915,2.792,2.792,2.7937,2.7929,2.7906,2.7905,2.7904,2.7903,0,2.7608,2.7602,2.7679,2.7696,2.7702,2.7756,2.7772,2.7816,2.7817,2.7878,2.7892,2.7895,2.7949,2.7945,2.8006,2.8003,2.8099,2.8087,2.809,2.8088,2.8154,2.8148,2.8362,2.8391,2.8198,2.82,2.8201,0,2.7696,2.7746,2.7769,2.7798,2.7813,2.786,2.7888,2.7875,2.7906,2.7942,2.7982,2.8033,2.8073,2.8162,2.8171,2.8218,2.8208,2.828,2.8215,2.8219,2.8211,2.8209,2.8215,2.8293,2.8295,2.8296,2.8298,0,2.7856,2.7851,2.7892,2.7933,2.7967,2.8,2.8029,2.8055,2.8046,2.8083,2.8137,2.8168,2.8231,2.8283,2.8329,2.8344,2.8322,2.8318,2.8336,2.8342,2.8343,2.8346,2.8127,2.8314,2.8312,2.8311,2.831,2.8309,2.7973,2.8017,2.804,2.8088,2.8108,2.8137,2.818,2.8187,2.8231,2.8281,2.8271,2.8333,2.8362,2.8421,2.8441,2.8491,2.8465,2.8491,2.8497,2.8504,2.8513,2.8335,2.8499,2.8499,2.8498,2.8498,2.8498,0,2.8132,2.8146,2.819,2.8232,2.827,2.8244,2.8276,2.831,2.8365,2.8392,2.8433,2.8497,2.8549,2.8563,2.8613,2.8651,2.8642,2.8665,2.8662,2.8667,2.8531,2.8512,2.8671,2.8671,2.8671,2.8671,2.8671,2.8671,2.8219,2.8293,2.8293,2.8378,2.8392,2.8451,2.8472,2.85,2.8523,2.8595,2.8638,2.8646,2.867,2.8722,2.8769,2.8772,2.8793,2.8821,2.882,2.8694,2.8676,2.866,2.8641,2.8825,2.8826,2.8952,2.8953,2.8954]},{"header":{"parameterUnit":"m.s-1","parameterCategory":1,"la1":30.2991,"la2":30.254,"lo1":-89.0895,"lo2":-89.0444,"dy":0.0017,"dx":0.0017,"nx":28,"ny":28,"refTime":"2025-01-18T03:00:00:Z","depth":0,"parameterNumber":3,"parameterNumberName":"V-component_of_WINDS"},"data":[0,0,0,0,0,0,0,0,0,0,0,0,0,0,0,0,0,0,0,0,0,0,0,0,0,0,0,0,0,0,0,0,0,0,0,0,0,0,0,0,0,0,0,0,0,0,0,0,0,0,0,0,0,0,0,0,0,0,0.24,0.2402,0,0.2634,0.2637,0.2639,0.272,0.2719,0.2718,0.2717,0.2959,0.2966,0.2973,0,0,0,0,0,0,0,0,0,0,0,0,0,0.2023,0.203,0.24,0.2403,0.2406,0.2634,0.2637,0.264,0.272,0.2719,0.2717,0.2716,0.2956,0.2965,0.2974,0,0,0,0,0,0,0,0,0,0,0,0,0,0.2215,0.2032,0.2399,0.2473,0.2482,0.2633,0.2637,0.2641,0.272,0.2718,0.2717,0.2716,0.2953,0.2964,0.2975,0.3071,0,0,0.3008,0.3013,0,0,0,0,0,0,0,0,0.2204,0.2229,0.2459,0.2468,0.2478,0.2646,0.2593,0.2785,0.272,0.263,0.2717,0.2715,0.2856,0.2875,0.2922,0.3082,0.3092,0.3009,0.3016,0.3021,0.3024,0,0,0,0,0,0,0,0.2191,0.2219,0.2493,0.2462,0.2474,0.2495,0.252,0.263,0.2748,0.2637,0.2644,0.267,0.2861,0.2911,0.2928,0.3096,0.3009,0.3019,0.3025,0.303,0.3348,0.335,0,0,0,0,0,0,0.2165,0.2208,0.2485,0.25,0.2335,0.2503,0.2531,0.2594,0.2747,0.2769,0.2671,0.2673,0.2893,0.2915,0.2937,0.3061,0.3021,0.3031,0.3037,0.3346,0.3348,0.335,0,0,0,0,0,0,0.2156,0.2189,0.2476,0.2355,0.2394,0.2511,0.258,0.2599,0.2649,0.2772,0.2794,0.2701,0.2893,0.2921,0.3037,0.3071,0.3036,0.3046,0.3344,0.3347,0.3349,0.3309,0,0,0,0,0,0,0.2145,0.2185,0.2223,0.2356,0.24,0.2571,0.2582,0.2605,0.2668,0.2673,0.2806,0.2827,0.2894,0.302,0.3048,0.3085,0.3054,0.3342,0.3345,0.3349,0.3308,0.331,0.3312,0,0,0,0,0,0.2132,0.2202,0.2224,0.2257,0.2449,0.2573,0.2598,0.2674,0.267,0.2709,0.2788,0.2822,0.3061,0.3031,0.3063,0.3104,0.334,0.3344,0.3348,0.3307,0.3309,0.3312,0,0,0,0,0,0,0.2071,0.2221,0.2247,0.2362,0.2454,0.2586,0.2638,0.2674,0.2769,0.277,0.286,0.2889,0.2998,0.3062,0.3026,0.3206,0.3203,0.3213,0.316,0.3164,0.3166,0.3149,0.3063,0,0,0,0,0,0.207,0.2158,0.2285,0.2374,0.2419,0.252,0.2577,0.2627,0.2726,0.2766,0.2853,0.2949,0.3046,0.3108,0.3204,0.3316,0.3348,0.336,0.3362,0.3363,0.3372,0.3438,0.3446,0.3364,0.3364,0.3364,0,0,0.2071,0.2164,0.2214,0.2364,0.2442,0.2532,0.2552,0.2646,0.2715,0.278,0.2896,0.2962,0.3075,0.319,0.3245,0.3247,0.3401,0.3368,0.3368,0.3377,0.3444,0.3451,0.3458,0.3367,0.3367,0.3366,0,0,0.212,0.2197,0.2282,0.2358,0.2474,0.2541,0.2561,0.2688,0.2735,0.2851,0.2903,0.2985,0.3149,0.3228,0.3289,0.3366,0.3402,0.3395,0.3406,0.347,0.3476,0.3483,0.3512,0.3522,0.3403,0.3403,0.3403,0,0.2107,0.2244,0.232,0.2412,0.2478,0.254,0.2626,0.2697,0.2838,0.2882,0.2882,0.309,0.317,0.3305,0.3324,0.3371,0.3398,0.3381,0.3469,0.3476,0.3483,0.3513,0.3523,0.3401,0.3401,0.3402,0.3402,0,0.2223,0.2317,0.2371,0.2506,0.2577,0.2665,0.2756,0.2819,0.2862,0.2928,0.3047,0.3145,0.3262,0.3297,0.334,0.3439,0.3437,0.3451,0.3451,0.3488,0.3518,0.3529,0.3399,0.34,0.34,0.34,0,0,0.2242,0.2417,0.2436,0.2499,0.2631,0.2706,0.2796,0.2911,0.2964,0.3058,0.3139,0.3276,0.3291,0.336,0.3412,0.3468,0.3525,0.3476,0.348,0.3484,0.3642,0.3633,0.3644,0.3548,0.3551,0.3553,0.3634,0,0.231,0.2476,0.2547,0.2681,0.277,0.2829,0.2909,0.2999,0.3063,0.3149,0.322,0.3317,0.3327,0.337,0.3427,0.3506,0.3559,0.3501,0.3626,0.363,0.3599,0.366,0.365,0.3722,0.3645,0.3647,0.3649,0,0.2411,0.2507,0.2649,0.2771,0.2811,0.2881,0.2992,0.3072,0.3176,0.3219,0.3296,0.3346,0.3445,0.3435,0.3574,0.3533,0.3588,0.3634,0.3639,0.3656,0.3644,0.3681,0.3746,0.3758,0.3667,0.3666,0.3664,0,0.2414,0.2577,0.2684,0.2735,0.288,0.2928,0.2991,0.3093,0.3157,0.3254,0.3297,0.3403,0.3462,0.3544,0.3622,0.3607,0.3754,0.375,0.3795,0.3793,0.3826,0.3824,0.3904,0.3856,0.3856,0.3855,0.3855,0,0.2484,0.2569,0.2688,0.2754,0.2851,0.2932,0.3027,0.3094,0.3184,0.3265,0.3322,0.3397,0.3493,0.358,0.3641,0.3748,0.3774,0.3813,0.3829,0.381,0.3805,0.385,0.3848,0.3858,0.3858,0.3857,0.3857,0,0.2505,0.2587,0.2708,0.2834,0.2868,0.2935,0.3044,0.311,0.3176,0.3278,0.3307,0.3411,0.3517,0.3601,0.3739,0.3781,0.3894,0.391,0.3859,0.3868,0.3909,0.3905,0.4024,0.4044,0.3978,0.3979,0.3979,0,0.2546,0.2613,0.2746,0.2804,0.2866,0.2958,0.3024,0.3106,0.3172,0.3295,0.3347,0.3456,0.3549,0.3715,0.3804,0.391,0.3932,0.3965,0.3948,0.3927,0.3936,0.3932,0.394,0.3968,0.3969,0.3969,0.3969,0,0.261,0.2647,0.274,0.2846,0.2923,0.3011,0.3101,0.3145,0.3243,0.3314,0.3423,0.3494,0.3635,0.3744,0.3859,0.3925,0.3965,0.3973,0.399,0.3973,0.3942,0.3962,0.3868,0.3971,0.3971,0.3971,0.3971,0.3971,0.2645,0.2708,0.2812,0.2913,0.2988,0.307,0.314,0.3214,0.3306,0.3427,0.3469,0.3581,0.3684,0.3843,0.3908,0.3998,0.4002,0.4025,0.4031,0.4037,0.4036,0.3924,0.4019,0.4019,0.4019,0.4019,0.4019,0,0.2715,0.2784,0.2876,0.2999,0.3079,0.3107,0.3207,0.3272,0.337,0.3462,0.3551,0.3676,0.3782,0.3879,0.3989,0.4043,0.4064,0.4069,0.4068,0.4083,0.4025,0.4001,0.405,0.405,0.405,0.405,0.405,0.405,0.2761,0.287,0.2919,0.3066,0.3135,0.3245,0.33,0.3377,0.3451,0.3588,0.3676,0.3737,0.3832,0.395,0.4048,0.4074,0.4114,0.4115,0.4146,0.4091,0.4087,0.4083,0.4061,0.4122,0.4122,0.4197,0.4198,0.4198]}]]